This is the latest recevied weather packets stored in our database for station/object KD4KKF. If no packets are shown the sender has not sent any weather packets the latest 10 day(s).
| Time | Temp. | Humidity | Pressure | Rain* | Wind** | Luminosity | Snow |
|---|---|---|---|---|---|---|---|
| 1777215937 | 25° C | 71% | 1012.2 hPa | 0 mm | - | 777 W/m² | - |
| 1777215634 | 25° C | 73% | 1012.2 hPa | 0 mm | - | 758 W/m² | - |
| 1777215329 | 25° C | 75% | 1012.4 hPa | 0 mm | - | 760 W/m² | - |
| 1777215026 | 24.44° C | 74% | 1012.5 hPa | 0 mm | - | 731 W/m² | - |
| 1777214726 | 23.89° C | 77% | 1012.4 hPa | 0 mm | - | 670 W/m² | - |
| 1777214425 | 23.89° C | 78% | 1012.4 hPa | 0 mm | - | 680 W/m² | - |
| 1777214120 | 23.89° C | 80% | 1012.4 hPa | 0 mm | - | 659 W/m² | - |
| 1777213815 | 23.33° C | 80% | 1012.3 hPa | 0 mm | - | 617 W/m² | - |
| 1777213509 | 22.78° C | 81% | 1012.4 hPa | 0 mm | - | 521 W/m² | - |
| 1777213208 | 23.33° C | 81% | 1012.4 hPa | 0 mm | - | 541 W/m² | - |
| 1777212904 | 22.78° C | 81% | 1012.3 hPa | 0 mm | - | 563 W/m² | - |
| 1777212602 | 22.78° C | 83% | 1012.4 hPa | 0 mm | - | 125 W/m² | - |
| 1777212300 | 22.78° C | 83% | 1012.4 hPa | 0 mm | - | 537 W/m² | - |
| 1777211995 | 22.22° C | 86% | 1012.6 hPa | 0 mm | - | 473 W/m² | - |
| 1777211691 | 21.67° C | 86% | 1012.7 hPa | 0 mm | - | 440 W/m² | - |
| 1777211390 | 21.11° C | 89% | 1012.7 hPa | 0 mm | - | 430 W/m² | - |
| 1777211086 | 21.11° C | 90% | 1012.9 hPa | 0 mm | - | 360 W/m² | - |
| 1777210783 | 20.56° C | 90% | 1012.6 hPa | 0 mm | - | 382 W/m² | - |
| 1777210482 | 20.56° C | 92% | 1012.7 hPa | 0 mm | - | 363 W/m² | - |
| 1777210179 | 20° C | 94% | 1012.6 hPa | 0 mm | - | 270 W/m² | - |
| 1777209876 | 20° C | 94% | 1012.6 hPa | 0 mm | - | 184 W/m² | - |
| 1777209571 | 18.89° C | 96% | 1012.4 hPa | 0 mm | - | 258 W/m² | - |
| 1777209266 | 18.33° C | 98% | 1012.4 hPa | 0 mm | - | 365 W/m² | - |
| 1777208964 | 18.33° C | 99% | 1012.5 hPa | 0 mm | - | 137 W/m² | - |
| 1777208660 | 17.78° C | 99% | 1012.6 hPa | 0 mm | - | 127 W/m² | - |
* Rain latest hour (hover to see other rain measurements)
** Current wind speed in m/s (hover to see current wind gust speed)